map of DMM home
DMM - Airport
Location
City:  Dammam, Saudi Arabia
Name:King Fahd International Airport
ICAO:OEDF
IATA:DMM

Details
Type:Airport (Aerodrome, Airfield)
Use:Public/Civil, International (customs port of entry)
Latitude:2628'16"N (26.471111)
Longitude:4947'52"E (49.797778)
Elevation:72 ft (22 m)
Variation:2.88E (WMM2015 magnetic declination)
0.05 annual change
Runways:2
Longest:13123 × 197 ft (4000 × 60 m), paved

Time
Time Zone:UTC+3
Local Time:

Weather
METAR:OEDF 240600Z 22003KT 8000 NSC 37/24 Q1003 NOSIG
TAF:OEDF 240230Z 2406/2512 VRB05KT 8000 NSC
BECMG 2409/2411 08013KT
BECMG 2419/2421 VRB05KT PROB30
TEMPO 2500/2504 5000 HZ

Related Locations
Nearby:
Farthest:GMR: 12065 mi / 19416 km
Mangareva [Totegegie], Gambier Islands, PF

Find:

   beyond  
but within

Other Information
Maps:
NOTAMs:
Links:
Sources:

  
flag of Saudi Arabia   

Sectional Chart

Flight Planning
at skyvector.com

Satellite Image

Google Maps Satellite view

 

Copyright © 2004-2017 Karl L. Swartz. All rights reserved.
The Great Circle Mapper name and logo are trademarks of the Great Circle Mapper.
All other trademarks mentioned herein belong to their respective owners.
Please see credits for attibutions and further copyright information.

  Follow gcmap on Facebook Follow gcmap on Twitter Follow gcmap on Google+ GCmap on LinkedIn

hCard Microformat

Geo Microformat